DELFI-N3XT

导读

DELFI-N3XT是荷兰(NL)于2013年11月21日发射的一颗先进纳米卫星,隶属于代尔夫特理工大学Delfi系列小卫星项目。相比前代Delfi-C3,它升级了姿态确定与控制子系统,搭载冷气体微推进载荷T3 μPS,推力可在0–6 mN间调节,支持立方体卫星编队飞行验证,NORAD编号39428,国际 COSPAR编号为2013-066N,是小卫星技术试验领域的创新探索实践。

基本信息
目录编号:
39428
目录名称:
DELFI-N3XT
国际标识:
2013-066N
轨道中心:
EARTH
卫星名称:
DELFI-N3XT
卫星全名:
--
卫星状态:
在轨 (已飞行4671 天)
发射日期:
2013-11-21 UTC
国别 :
荷兰 (NL)
星等 :
--
轨道信息
数据来源 国际轨道数据
星历时间: 2026-09-05T17:36:43+0800
10小时前
查看轨道信息
半长轴: 6957.425km
偏心率: 0.0071376
轨道倾角: 97.829°
近地点辐角 300.664°
升交点赤经 168.666°
平近点角 58.756°
近地点: 529.628km
远地点: 628.948km
周期: 96.257分钟
每日圈数: 14.959947
详细信息
使用方式:
暂无
2D轨道图
3D轨道图
轨道高度分析图
轨道倾角分析图
轨道综合分析图
查看轨道综合分析图
交会数据列表
事件ID 空间交会对象 最接近时刻(TCA) 交会距离 交会风险概率(CRP) 交会风险指数(CRI) 操作
CDM_260905-215003-942806-701624
2026-09-05T
21:50:05+0000
0.763 km
远距离
6.672274E-5 中风险 0.71
CDM_260908-080203-942805-410021
2026-09-08T
08:02:00+0000
1.445 km
极远距离
5.422562E-6 低风险 0.5